Location: Chervonnoye
(48.6000°N, 34.4000°E)
Time: 19:37:28
(UTC+00:00)

X-37B - Pass Details

Date: 28 September 2021
Orbit: 385 x 389 km, 45.0° (Epoch: 13 October)

Event Time Altitude Azimuth Distance (km) Brightness Sun altitude
Exits shadow 00:53:51 13° 105° (ESE) 1,253 3.6 -26.7°
Drops below altitude 10° 00:54:18 10° 101° (E) 1,414 4.0 -26.7°
Sets 00:56:30 0° 90° (E) 2,271 5.4 -26.4°
